This is the latest recevied weather packets stored in our database for station/object N2PPN. If no packets are shown the sender has not sent any weather packets the latest 1 day(s).
| Time | Temp. | Humidity | Pressure | Rain* | Wind** | Luminosity | Snow |
|---|---|---|---|---|---|---|---|
| 1778006986 | 19.44° C | 69% | 1013.5 hPa | 0 mm | 2.68 m/s, 221° | 639 W/m² | - |
| 1778006683 | 18.89° C | 72% | 1013.3 hPa | 0 mm | 2.68 m/s, 149° | 645 W/m² | - |
| 1778006380 | 18.89° C | 71% | 1013.6 hPa | 0 mm | 3.58 m/s, 212° | 654 W/m² | - |
| 1778006077 | 18.89° C | 71% | 1013.6 hPa | 0 mm | 3.13 m/s, 226° | 659 W/m² | - |
| 1778005773 | 18.33° C | 73% | 1013.4 hPa | 0 mm | 2.24 m/s, 129° | 667 W/m² | - |
| 1778005470 | 18.33° C | 74% | 1013.6 hPa | 0 mm | 3.58 m/s, 235° | 673 W/m² | - |
| 1778005166 | 18.89° C | 73% | 1013.6 hPa | 0 mm | 3.58 m/s, 184° | 681 W/m² | - |
| 1778004864 | 18.33° C | 74% | 1013.8 hPa | 0 mm | 2.24 m/s, 200° | 687 W/m² | - |
| 1778004560 | 18.33° C | 73% | 1013.6 hPa | 0 mm | 4.47 m/s, 130° | 691 W/m² | - |
| 1778004257 | 18.33° C | 73% | 1013.7 hPa | 0 mm | 4.02 m/s, 262° | 698 W/m² | - |
| 1778003954 | 18.89° C | 73% | 1013.6 hPa | 0 mm | 4.47 m/s, 167° | 701 W/m² | - |
| 1778003650 | 18.89° C | 73% | 1013.8 hPa | 0 mm | 4.02 m/s, 165° | 707 W/m² | - |
| 1778003347 | 18.89° C | 74% | 1013.9 hPa | 0 mm | 3.13 m/s, 220° | 711 W/m² | - |
| 1778003044 | 18.89° C | 72% | 1014 hPa | 0 mm | 4.02 m/s, 164° | 715 W/m² | - |
| 1778002740 | 18.89° C | 74% | 1013.8 hPa | 0 mm | 3.13 m/s, 164° | 719 W/m² | - |
| 1778002436 | 18.33° C | 75% | 1013.8 hPa | 0 mm | 2.68 m/s, 228° | 721 W/m² | - |
| 1778002134 | 18.33° C | 75% | 1013.9 hPa | 0 mm | 3.58 m/s, 168° | 724 W/m² | - |
| 1778001831 | 17.78° C | 74% | 1014 hPa | 0 mm | 3.13 m/s, 244° | 727 W/m² | - |
| 1778001530 | 17.78° C | 75% | 1013.9 hPa | 0 mm | 3.58 m/s, 174° | 727 W/m² | - |
| 1778001228 | 17.78° C | 76% | 1014.2 hPa | 0 mm | 4.02 m/s, 172° | 727 W/m² | - |
| 1778000924 | 17.78° C | 76% | 1014.2 hPa | 0 mm | 4.47 m/s, 230° | 728 W/m² | - |
| 1778000621 | 17.78° C | 75% | 1014.2 hPa | 0 mm | 4.02 m/s, 216° | 730 W/m² | - |
| 1778000316 | 17.78° C | 75% | 1014.4 hPa | 0 mm | 2.68 m/s, 190° | 729 W/m² | - |
| 1778000013 | 17.78° C | 75% | 1014.1 hPa | 0 mm | 2.24 m/s, 224° | 729 W/m² | - |
| 1777999708 | 18.33° C | 74% | 1014.2 hPa | 0 mm | 5.36 m/s, 238° | 729 W/m² | - |
* Rain latest hour (hover to see other rain measurements)
** Current wind speed in m/s (hover to see current wind gust speed)